Date String (YYYY-MM-DD hh:mm:ss) UTC,Instrument flags,Ambient pressure (hPa),Sample flow (lpm),Bypass flow (lpm),Sample temperature (°C),Ambient temperature (°C),ASC tube jacket temperature (°C),LED temperature (°C),Box temperature (°C),Sample RH (%),Span deviation,Mass concentration (μg/m³),Mass concentration (μg/m³),Mass concentration (μg/m³)
DateTimeUTC,F1_M11,P_M11,Q1_M11,Q2_M11,T1_M11,T2_M11,T3_M11,T4_M11,T5_M11,U1_M11,ZSPAN_M11,X0_M11,X2_M11,X1_M11
2022-03-06 04:00:00,,0823.5,5.00,0.00,22.1,21.7,00.0,31.1,23.7,12.0,0000.0,0006.25,0004.50,0004.34
2022-03-06 04:01:00,,0823.5,5.00,0.00,22.1,21.6,00.0,31.1,23.7,12.0,0000.0,0006.45,0004.49,0004.30
2022-03-06 04:02:00,,0823.5,5.00,0.00,22.0,21.4,00.0,31.1,23.6,12.0,0000.0,0006.51,0004.47,0004.26
2022-03-06 04:03:00,,0823.5,4.99,0.00,22.0,21.3,00.0,31.1,23.6,12.0,0000.0,0006.55,0004.41,0004.21
2022-03-06 04:04:00,,0823.5,5.00,0.00,21.9,21.3,00.0,31.1,23.5,12.1,0000.0,0006.93,0004.38,0004.18
2022-03-06 04:05:00,,0823.5,5.00,0.00,22.0,21.8,00.0,31.1,23.7,12.1,0000.0,0006.93,0004.35,0004.15
2022-03-06 04:06:00,,0823.6,5.01,0.00,22.1,22.6,00.0,31.2,24.0,12.0,0000.0,0007.00,0004.34,0004.11
2022-03-06 04:07:00,,0823.6,4.99,0.00,22.3,23.1,00.0,31.2,24.3,12.0,0000.0,0007.02,0004.32,0004.08
2022-03-06 04:08:00,,0823.6,5.00,0.00,22.4,22.9,00.0,31.2,24.3,12.0,0000.0,0006.97,0004.29,0004.05
2022-03-06 04:09:00,,0823.6,5.01,0.00,22.3,22.6,00.0,31.2,24.2,12.0,0000.0,0006.99,0004.29,0004.04
2022-03-06 04:10:00,,0823.6,5.01,0.00,22.3,22.3,00.0,31.2,24.1,12.0,0000.0,0007.11,0004.28,0004.01
2022-03-06 04:11:00,,0823.5,5.00,0.00,22.3,22.1,00.0,31.2,24.0,12.0,0000.0,0007.04,0004.25,0003.99
2022-03-06 04:12:00,,0823.5,5.00,0.00,22.2,22.0,00.0,31.2,23.9,12.0,0000.0,0006.75,0004.21,0003.98
2022-03-06 04:13:00,,0823.4,4.99,0.00,22.2,21.8,00.0,31.2,23.9,12.0,0000.0,0006.55,0004.16,0003.96
2022-03-06 04:14:00,,0823.5,5.01,0.00,22.2,21.7,00.0,31.2,23.8,11.9,0000.0,0006.27,0004.14,0003.94
2022-03-06 04:15:00,,0823.5,5.00,0.00,22.1,21.6,00.0,31.2,23.8,12.0,0000.0,0005.71,0004.10,0003.92
2022-03-06 04:16:00,,0823.4,5.00,0.00,22.1,21.5,00.0,31.2,23.7,11.9,0000.0,0005.70,0004.09,0003.92
2022-03-06 04:17:00,,0823.5,5.02,0.00,22.0,21.4,00.0,31.2,23.6,11.9,0000.0,0005.70,0004.07,0003.91
2022-03-06 04:18:00,,0823.5,4.99,0.00,22.0,21.3,00.0,31.2,23.6,11.9,0000.0,0005.67,0004.06,0003.88
2022-03-06 04:19:00,,0823.4,5.00,0.00,21.9,21.2,00.0,31.1,23.5,11.9,0000.0,0005.58,0004.03,0003.86
2022-03-06 04:20:00,,0823.5,4.99,0.00,22.0,21.4,00.0,31.1,23.6,11.9,0000.0,0005.49,0003.99,0003.83
2022-03-06 04:21:00,,0823.6,5.01,0.00,22.1,22.2,00.0,31.2,23.9,11.8,0000.0,0005.22,0003.94,0003.80
2022-03-06 04:22:00,,0823.6,5.00,0.00,22.2,22.9,00.0,31.2,24.2,11.6,0000.0,0005.87,0003.91,0003.78
2022-03-06 04:23:00,,0823.6,4.99,0.00,22.3,22.9,00.0,31.2,24.3,11.6,0000.0,0006.54,0003.91,0003.75
2022-03-06 04:24:00,,0823.5,5.01,0.00,22.3,22.6,00.0,31.2,24.2,11.5,0000.0,0006.59,0003.91,0003.73
2022-03-06 04:25:00,,0823.5,5.00,0.00,22.3,22.4,00.0,31.2,24.1,11.5,0000.0,0006.61,0003.89,0003.71
2022-03-06 04:26:00,,0823.5,5.01,0.00,22.3,22.2,00.0,31.2,24.0,11.6,0000.0,0006.62,0003.87,0003.69
2022-03-06 04:27:00,,0823.6,5.00,0.00,22.2,22.0,00.0,31.2,23.9,11.6,0000.0,0006.60,0003.86,0003.67
2022-03-06 04:28:00,,0823.7,4.99,0.00,22.2,21.8,00.0,31.2,23.8,11.7,0000.0,0006.50,0003.84,0003.64
2022-03-06 04:29:00,,0823.6,5.00,0.00,22.2,21.7,00.0,31.2,23.8,11.7,0000.0,0006.41,0003.81,0003.63
2022-03-06 04:30:00,,0823.6,5.00,0.00,22.1,21.6,00.0,31.2,23.8,11.7,0000.0,0006.40,0003.80,0003.62
2022-03-06 04:31:00,,0823.6,4.99,0.00,22.1,21.5,00.0,31.2,23.7,11.8,0000.0,0006.42,0003.80,0003.61
2022-03-06 04:32:00,,0823.6,5.01,0.00,22.1,21.5,00.0,31.2,23.7,11.8,0000.0,0006.42,0003.80,0003.60
2022-03-06 04:33:00,,0823.7,5.00,0.00,22.1,21.4,00.0,31.2,23.7,11.8,0000.0,0005.84,0003.79,0003.59
2022-03-06 04:34:00,,0823.6,5.00,0.00,22.0,21.4,00.0,31.2,23.7,11.8,0000.0,0005.20,0003.79,0003.59
2022-03-06 04:35:00,,0823.7,5.01,0.00,22.0,21.3,00.0,31.2,23.6,11.8,0000.0,0005.21,0003.78,0003.59
2022-03-06 04:36:00,,0823.7,4.99,0.00,22.0,21.2,00.0,31.1,23.5,11.9,0000.0,0005.19,0003.78,0003.59
2022-03-06 04:37:00,,0823.6,5.00,0.00,22.0,21.7,00.0,31.2,23.7,11.8,0000.0,0005.09,0003.77,0003.59
2022-03-06 04:38:00,,0823.7,5.02,0.00,22.2,22.5,00.0,31.2,24.0,11.7,0000.0,0005.10,0003.75,0003.58
2022-03-06 04:39:00,,0823.8,5.00,0.00,22.3,23.0,00.0,31.2,24.3,11.6,0000.0,0005.39,0003.75,0003.58
2022-03-06 04:40:00,,0823.8,4.99,0.00,22.4,22.8,00.0,31.3,24.2,11.5,0000.0,0006.01,0003.75,0003.58
2022-03-06 04:41:00,,0823.9,5.00,0.00,22.3,22.5,00.0,31.3,24.1,11.5,0000.0,0006.08,0003.76,0003.58
2022-03-06 04:42:00,,0823.8,5.01,0.00,22.3,22.3,00.0,31.3,24.0,11.4,0000.0,0007.25,0003.75,0003.57
2022-03-06 04:43:00,,0823.8,5.01,0.00,22.3,22.0,00.0,31.3,23.9,11.4,0000.0,0007.43,0003.75,0003.56
2022-03-06 04:44:00,,0823.9,5.00,0.00,22.2,21.8,00.0,31.3,23.8,11.4,0000.0,0007.47,0003.76,0003.56
2022-03-06 04:45:00,,0823.9,5.00,0.00,22.2,21.7,00.0,31.2,23.8,11.4,0000.0,0007.42,0003.75,0003.56
2022-03-06 04:46:00,,0823.9,5.01,0.00,22.1,21.6,00.0,31.2,23.7,11.4,0000.0,0007.38,0003.74,0003.54
2022-03-06 04:47:00,,0823.8,5.00,0.00,22.1,21.5,00.0,31.2,23.7,11.4,0000.0,0007.37,0003.72,0003.53
2022-03-06 04:48:00,,0823.9,5.02,0.00,22.0,21.4,00.0,31.2,23.7,11.5,0000.0,0007.42,0003.73,0003.53
2022-03-06 04:49:00,,0823.8,4.98,0.00,22.0,21.3,00.0,31.2,23.6,11.5,0000.0,0007.39,0003.73,0003.52
2022-03-06 04:50:00,,0823.9,5.01,0.00,22.0,21.3,00.0,31.2,23.6,11.6,0000.0,0007.18,0003.71,0003.52
2022-03-06 04:51:00,,0823.9,4.99,0.00,22.0,21.2,00.0,31.1,23.6,11.6,0000.0,0006.40,0003.69,0003.52
2022-03-06 04:52:00,,0823.9,5.01,0.00,21.9,21.2,00.0,31.1,23.5,11.7,0000.0,0006.34,0003.68,0003.51
2022-03-06 04:53:00,,0823.9,5.00,0.00,21.9,21.1,00.0,31.1,23.4,11.6,0000.0,0005.21,0003.66,0003.52
2022-03-06 04:54:00,,0823.9,4.99,0.00,21.8,21.1,00.0,31.1,23.4,11.6,0000.0,0004.81,0003.66,0003.53
2022-03-06 04:55:00,,0823.9,5.00,0.00,21.9,21.5,00.0,31.1,23.5,11.6,0000.0,0004.78,0003.66,0003.53
2022-03-06 04:56:00,,0823.9,5.01,0.00,22.0,22.4,00.0,31.1,23.9,11.5,0000.0,0004.65,0003.64,0003.53
2022-03-06 04:57:00,,0823.9,5.00,0.00,22.2,23.0,00.0,31.2,24.1,11.4,0000.0,0004.59,0003.64,0003.53
2022-03-06 04:58:00,,0823.9,5.00,0.00,22.2,22.7,00.0,31.2,24.1,11.3,0000.0,0004.56,0003.65,0003.53
2022-03-06 04:59:00,,0823.9,5.00,0.00,22.2,22.4,00.0,31.2,24.0,11.4,0000.0,0004.50,0003.64,0003.52
